Location: Kalberh�ni
(46.4610°N, 7.2453°E)
Time: 05:25:00
(UTC+00:00)

GEOS 3 Rocket - Pass Details

Date: 20 June 2021
Orbit: 779 x 840 km, 115.0° (Epoch: 28 July)

Event Time Altitude Azimuth Distance (km) Brightness Sun altitude
Exits shadow 22:38:09 31° 139° (SE) 1,439 4.4 -19.0°
Maximum altitude 22:40:51 89° 61° (ENE) 845 3.6 -19.1°
Drops below altitude 10° 22:46:13 10° 321° (NW) 2,452 7.0 -19.3°
Sets 22:48:32 0° 322° (NW) 3,383 7.9 -19.4°
